Hourly Data Report for April 26, 2021

MIRAMICHI RCS
NEW BRUNSWICK
Current Station Operator: ECCC - MSC

47°00'34.000" N
65°27'54.000" W
33.00 m
8100989
71744
ACQ

Download Data

Hourly Data (April 2021)
Hourly Data Report for April 26, 2021
TIME
LST
Temp Definition
°C
Dew Point Definition
°C
Rel Hum Definition
%
Precip. Amount Definition
mm

Wind Dir Definition
10's deg

Wind Spd Definition
km/h
Visibility Definition
km
Stn Press Definition
kPa
Hmdx Definition


Wind Chill Definition


Weather Definition


00:00 4.4 3.3 93 LegendMM 5 6   100.33     LegendNANA
01:00 4.2 3.5 95 LegendMM 5 9   100.26     LegendNANA
02:00 4.3 3.7 96 LegendMM 5 10   100.11     LegendNANA
03:00 4.2 3.6 96 LegendMM 2 8   99.98     LegendNANA
04:00 4.9 4.4 97 LegendMM 2 9   99.86     LegendNANA
05:00 5.4 4.7 95 LegendMM 2 10   99.75     LegendNANA
06:00 5.6 5.0 96 LegendMM 2 10   99.71     LegendNANA
07:00 5.9 5.3 96 LegendMM 3 12   99.65     LegendNANA
08:00 6.2 5.4 95 LegendMM 34 11   99.51     LegendNANA
09:00 6.0 5.0 94 LegendMM 34 13   99.40     LegendNANA
10:00 6.1 5.0 92 LegendMM 35 13   99.29     LegendNANA
11:00 6.3 4.6 89 LegendMM 36 15   99.23     LegendNANA
12:00 7.7 5.3 84 LegendMM 35 18   99.15     LegendNANA
13:00 6.2 4.0 85 LegendMM 31 17   99.17     LegendNANA
14:00 6.2 4.0 86 LegendMM 31 17   99.20     LegendNANA
15:00 6.9 3.8 81 LegendMM 31 21   99.16     LegendNANA
16:00 6.7 4.3 85 LegendMM 31 16   99.18     LegendNANA
17:00 6.9 4.1 82 LegendMM 30 14   99.19     LegendNANA
18:00 6.7 3.2 78 LegendMM 30 13   99.22     LegendNANA
19:00 5.4 2.7 83 LegendMM 30 20   99.28     LegendNANA
20:00 4.4 2.7 89 LegendMM 29 16   99.32     LegendNANA
21:00 4.0 3.0 93 LegendMM 26 14   99.35     LegendNANA
22:00 3.8 3.1 95 LegendMM 26 14   99.33     LegendNANA
23:00 3.9 3.2 95 LegendMM 25 14   99.34     LegendNANA

Notes on Data Quality.

Legend

  • E = Estimated
  • M = Missing
  • NA = Not Available*
  • [empty] = Indicates an unobserved value
Date modified: